Time,TemperatureF,DewpointF,PressureIn,WindDirection,WindDirectionDegrees,WindSpeedMPH,WindSpeedGustMPH,Humidity,HourlyPrecipIn,Conditions,Clouds,dailyrainin,SoftwareType,DateUTC
2013-05-03 00:00:00,58.1,23.3,30.19,SW,232,0.0,0.0,26,0.00,CLR,,0.00,WeatherDisplay:10.37,2013-05-03 07:00:00,
2013-05-03 00:05:00,58.1,23.3,30.19,West,263,0.0,0.0,26,0.00,CLR,,0.00,WeatherDisplay:10.37,2013-05-03 07:05:00,
2013-05-03 00:10:00,57.9,23.2,30.18,WNW,294,0.0,0.0,26,0.00,CLR,,0.00,WeatherDisplay:10.37,2013-05-03 07:10:00,
2013-05-03 00:20:00,57.7,23.0,30.18,SE,134,0.0,0.0,26,0.00,CLR,,0.00,WeatherDisplay:10.37,2013-05-03 07:20:00,
2013-05-03 00:30:00,57.6,22.9,30.18,East,95,0.0,0.0,26,0.00,CLR,,0.00,WeatherDisplay:10.37,2013-05-03 07:30:00,
2013-05-03 00:40:00,57.4,22.7,30.17,South,180,0.0,0.0,26,0.00,CLR,,0.00,WeatherDisplay:10.37,2013-05-03 07:40:00,
2013-05-03 00:50:00,57.4,22.7,30.17,SW,215,0.0,0.0,26,0.00,CLR,,0.00,WeatherDisplay:10.37,2013-05-03 07:50:00,
2013-05-03 01:00:00,57.0,22.4,30.17,WSW,251,0.0,0.0,26,0.00,CLR,,0.00,WeatherDisplay:10.37,2013-05-03 08:00:00,
2013-05-03 01:05:00,57.0,22.4,30.17,West,277,0.0,0.0,26,0.00,CLR,,0.00,WeatherDisplay:10.37,2013-05-03 08:05:00,
2013-05-03 01:10:00,57.0,22.4,30.17,SW,214,0.0,0.0,26,0.00,CLR,,0.00,WeatherDisplay:10.37,2013-05-03 08:10:00,
2013-05-03 01:20:00,56.8,22.3,30.17,NW,321,0.0,0.0,26,0.00,CLR,,0.00,WeatherDisplay:10.37,2013-05-03 08:20:00,
2013-05-03 01:30:00,56.5,22.0,30.17,WNW,282,0.0,1.0,26,0.00,CLR,,0.00,WeatherDisplay:10.37,2013-05-03 08:30:00,
2013-05-03 01:40:00,56.1,21.7,30.17,NE,43,0.0,0.0,26,0.00,CLR,,0.00,WeatherDisplay:10.37,2013-05-03 08:40:00,
2013-05-03 01:50:00,55.9,22.4,30.17,West,261,0.0,0.0,27,0.00,CLR,,0.00,WeatherDisplay:10.37,2013-05-03 08:50:00,
2013-05-03 02:00:00,55.8,22.2,30.17,SE,146,0.0,0.0,27,0.00,CLR,,0.00,WeatherDisplay:10.37,2013-05-03 09:00:00,
2013-05-03 02:05:00,55.6,22.1,30.17,SSE,148,0.0,0.0,27,0.00,CLR,,0.00,WeatherDisplay:10.37,2013-05-03 09:05:00,
2013-05-03 02:10:00,55.4,21.9,30.17,South,172,0.0,1.0,27,0.00,CLR,,0.00,WeatherDisplay:10.37,2013-05-03 09:10:00,
2013-05-03 02:20:00,55.0,22.5,30.17,West,267,0.0,0.0,28,0.00,CLR,,0.00,WeatherDisplay:10.37,2013-05-03 09:20:00,
2013-05-03 02:30:00,54.7,22.2,30.17,WNW,295,0.0,0.0,28,0.00,CLR,,0.00,WeatherDisplay:10.37,2013-05-03 09:30:00,
2013-05-03 02:40:00,54.3,21.9,30.17,NE,54,0.0,0.0,28,0.00,CLR,,0.00,WeatherDisplay:10.37,2013-05-03 09:40:00,
2013-05-03 02:50:00,54.0,21.6,30.17,SSW,197,0.0,1.0,28,0.00,CLR,,0.00,WeatherDisplay:10.37,2013-05-03 09:50:00,
2013-05-03 03:00:00,53.8,21.4,30.17,South,169,0.0,0.0,28,0.00,CLR,,0.00,WeatherDisplay:10.37,2013-05-03 10:00:00,
2013-05-03 03:05:00,53.8,22.2,30.17,SW,229,0.0,0.0,29,0.00,CLR,,0.00,WeatherDisplay:10.37,2013-05-03 10:05:00,
2013-05-03 03:10:00,53.4,21.9,30.17,SW,214,0.0,0.0,29,0.00,CLR,,0.00,WeatherDisplay:10.37,2013-05-03 10:10:00,
2013-05-03 03:20:00,53.4,21.9,30.17,SW,233,0.0,0.0,29,0.00,CLR,,0.00,WeatherDisplay:10.37,2013-05-03 10:20:00,
2013-05-03 03:30:00,53.1,21.6,30.16,ESE,116,0.0,0.0,29,0.00,CLR,,0.00,WeatherDisplay:10.37,2013-05-03 10:30:00,
2013-05-03 03:40:00,52.9,21.4,30.16,West,261,1.0,7.0,29,0.00,CLR,,0.00,WeatherDisplay:10.37,2013-05-03 10:40:00,
2013-05-03 03:50:00,52.7,22.1,30.16,SW,221,0.0,0.0,30,0.00,CLR,,0.00,WeatherDisplay:10.37,2013-05-03 10:50:00,
2013-05-03 04:00:00,52.5,21.9,30.16,South,191,0.0,0.0,30,0.00,CLR,,0.00,WeatherDisplay:10.37,2013-05-03 11:00:00,
2013-05-03 04:05:00,52.5,21.9,30.15,WSW,249,0.0,0.0,30,0.00,CLR,,0.00,WeatherDisplay:10.37,2013-05-03 11:05:00,
2013-05-03 04:10:00,52.3,21.8,30.16,SSW,199,0.0,0.0,30,0.00,CLR,,0.00,WeatherDisplay:10.37,2013-05-03 11:10:00,
2013-05-03 04:20:00,52.3,21.8,30.16,NNW,348,0.0,0.0,30,0.00,CLR,,0.00,WeatherDisplay:10.37,2013-05-03 11:20:00,
2013-05-03 04:30:00,52.2,21.6,30.16,SSW,203,0.0,0.0,30,0.00,CLR,,0.00,WeatherDisplay:10.37,2013-05-03 11:30:00,
2013-05-03 04:40:00,52.0,21.5,30.16,WSW,237,0.0,0.0,30,0.00,CLR,,0.00,WeatherDisplay:10.37,2013-05-03 11:40:00,
2013-05-03 04:50:00,51.6,21.2,30.16,East,91,0.0,0.0,30,0.00,CLR,,0.00,WeatherDisplay:10.37,2013-05-03 11:50:00,
2013-05-03 05:00:00,51.6,21.2,30.16,WSW,248,0.0,0.0,30,0.00,CLR,,0.00,WeatherDisplay:10.37,2013-05-03 12:00:00,
2013-05-03 05:05:00,51.6,21.2,30.15,SW,225,0.0,0.0,30,0.00,CLR,,0.00,WeatherDisplay:10.37,2013-05-03 12:05:00,
2013-05-03 05:10:00,51.6,21.2,30.15,SW,220,0.0,0.0,30,0.00,CLR,,0.00,WeatherDisplay:10.37,2013-05-03 12:10:00,
2013-05-03 05:20:00,51.6,21.2,30.16,South,182,0.0,0.0,30,0.00,CLR,,0.00,WeatherDisplay:10.37,2013-05-03 12:20:00,
2013-05-03 05:30:00,51.6,21.2,30.16,SE,138,0.0,0.0,30,0.00,CLR,,0.00,WeatherDisplay:10.37,2013-05-03 12:30:00,
2013-05-03 05:40:00,51.4,21.0,30.16,South,185,0.0,0.0,30,0.00,CLR,,0.00,WeatherDisplay:10.37,2013-05-03 12:40:00,
2013-05-03 05:50:00,51.3,20.8,30.17,SSW,196,0.0,0.0,30,0.00,CLR,,0.00,WeatherDisplay:10.37,2013-05-03 12:50:00,
2013-05-03 06:00:00,51.4,21.0,30.17,SW,229,0.0,0.0,30,0.00,CLR,,0.00,WeatherDisplay:10.37,2013-05-03 13:00:00,
2013-05-03 06:05:00,51.1,20.7,30.17,SSW,203,0.0,0.0,30,0.00,CLR,,0.00,WeatherDisplay:10.37,2013-05-03 13:05:00,
2013-05-03 06:10:00,51.3,20.9,30.17,South,188,0.0,0.0,30,0.00,CLR,,0.00,WeatherDisplay:10.37,2013-05-03 13:10:00,
2013-05-03 06:20:00,51.4,21.0,30.16,SE,141,0.0,0.0,30,0.00,CLR,,0.00,WeatherDisplay:10.37,2013-05-03 13:20:00,
2013-05-03 06:30:00,51.6,21.2,30.17,ESE,117,0.0,0.0,30,0.00,CLR,,0.00,WeatherDisplay:10.37,2013-05-03 13:30:00,
2013-05-03 06:40:00,51.8,21.3,30.17,ESE,114,0.0,0.0,30,0.00,CLR,,0.00,WeatherDisplay:10.37,2013-05-03 13:40:00,
2013-05-03 06:50:00,52.3,21.8,30.16,SSW,197,0.0,0.0,30,0.00,CLR,,0.00,WeatherDisplay:10.37,2013-05-03 13:50:00,
2013-05-03 07:00:00,52.5,21.1,30.17,East,92,0.0,0.0,29,0.00,CLR,,0.00,WeatherDisplay:10.37,2013-05-03 14:00:00,
2013-05-03 07:05:00,52.9,21.4,30.17,East,98,0.0,0.0,29,0.00,CLR,,0.00,WeatherDisplay:10.37,2013-05-03 14:05:00,
2013-05-03 07:10:00,53.2,21.8,30.17,SE,125,0.0,0.0,29,0.00,CLR,,0.00,WeatherDisplay:10.37,2013-05-03 14:10:00,
2013-05-03 07:20:00,53.4,21.9,30.16,ENE,64,0.0,0.0,29,0.00,CLR,,0.00,WeatherDisplay:10.37,2013-05-03 14:20:00,
2013-05-03 07:30:00,54.1,21.7,30.17,ENE,77,0.0,0.0,28,0.00,CLR,,0.00,WeatherDisplay:10.37,2013-05-03 14:30:00,
2013-05-03 07:40:00,54.8,22.3,30.16,ESE,115,0.0,7.0,28,0.00,CLR,,0.00,WeatherDisplay:10.37,2013-05-03 14:40:00,
2013-05-03 07:50:00,55.4,21.9,30.16,East,95,5.0,6.0,27,0.00,CLR,,0.00,WeatherDisplay:10.37,2013-05-03 14:50:00,
2013-05-03 08:00:00,55.9,22.4,30.16,SSE,149,0.0,0.0,27,0.00,CLR,,0.00,WeatherDisplay:10.37,2013-05-03 15:00:00,
2013-05-03 08:05:00,56.3,22.7,30.16,South,180,0.0,0.0,27,0.00,CLR,,0.00,WeatherDisplay:10.37,2013-05-03 15:05:00,
2013-05-03 08:10:00,56.5,22.9,30.16,SW,216,0.0,0.0,27,0.00,CLR,,0.00,WeatherDisplay:10.37,2013-05-03 15:10:00,
2013-05-03 08:20:00,57.0,22.4,30.16,SSW,206,0.0,0.0,26,0.00,CLR,,0.00,WeatherDisplay:10.37,2013-05-03 15:20:00,
2013-05-03 08:30:00,57.6,22.9,30.16,East,98,0.0,0.0,26,0.00,CLR,,0.00,WeatherDisplay:10.37,2013-05-03 15:30:00,
2013-05-03 08:40:00,58.3,22.6,30.16,SSW,209,0.0,0.0,25,0.00,CLR,,0.00,WeatherDisplay:10.37,2013-05-03 15:40:00,
2013-05-03 08:50:00,58.8,23.0,30.16,SSE,154,0.0,0.0,25,0.00,CLR,,0.00,WeatherDisplay:10.37,2013-05-03 15:50:00,
2013-05-03 09:00:00,59.5,23.6,30.15,NE,40,0.0,0.0,25,0.00,CLR,,0.00,WeatherDisplay:10.37,2013-05-03 16:00:00,
2013-05-03 09:05:00,59.8,23.8,30.15,ENE,64,3.0,4.0,25,0.00,CLR,,0.00,WeatherDisplay:10.37,2013-05-03 16:05:00,
2013-05-03 09:10:00,60.1,23.1,30.15,ENE,67,0.0,3.0,24,0.00,CLR,,0.00,WeatherDisplay:10.37,2013-05-03 16:10:00,
2013-05-03 09:20:00,61.0,23.9,30.15,East,81,0.0,0.0,24,0.00,CLR,,0.00,WeatherDisplay:10.37,2013-05-03 16:20:00,
2013-05-03 09:30:00,61.9,23.6,30.15,ENE,71,0.0,0.0,23,0.00,CLR,,0.00,WeatherDisplay:10.37,2013-05-03 16:30:00,
2013-05-03 09:40:00,62.7,24.3,30.15,ESE,110,1.0,4.0,23,0.00,CLR,,0.00,WeatherDisplay:10.37,2013-05-03 16:40:00,
2013-05-03 09:50:00,63.3,24.9,30.15,South,191,0.0,0.0,23,0.00,CLR,,0.00,WeatherDisplay:10.37,2013-05-03 16:50:00,
2013-05-03 10:00:00,64.0,23.3,30.14,SE,126,0.0,0.0,21,0.00,CLR,,0.00,WeatherDisplay:10.37,2013-05-03 17:00:00,
2013-05-03 10:05:00,64.2,23.4,30.14,SSW,192,2.0,5.0,21,0.00,CLR,,0.00,WeatherDisplay:10.37,2013-05-03 17:05:00,
2013-05-03 10:10:00,64.4,24.7,30.14,NW,315,0.0,4.0,22,0.00,CLR,,0.00,WeatherDisplay:10.37,2013-05-03 17:10:00,
2013-05-03 10:20:00,65.0,22.9,30.14,NW,320,0.0,0.0,20,0.00,CLR,,0.00,WeatherDisplay:10.37,2013-05-03 17:20:00,
2013-05-03 10:30:00,66.0,23.8,30.14,East,86,0.0,0.0,20,0.00,CLR,,0.00,WeatherDisplay:10.37,2013-05-03 17:30:00,
2013-05-03 10:40:00,66.7,24.3,30.14,South,177,3.0,4.0,20,0.00,CLR,,0.00,WeatherDisplay:10.37,2013-05-03 17:40:00,
2013-05-03 10:50:00,67.8,24.0,30.14,SE,134,0.0,4.0,19,0.00,CLR,,0.00,WeatherDisplay:10.37,2013-05-03 17:50:00,
2013-05-03 11:00:00,68.4,24.5,30.13,ENE,69,0.0,7.0,19,0.00,CLR,,0.00,WeatherDisplay:10.37,2013-05-03 18:00:00,
2013-05-03 11:05:00,68.5,24.6,30.13,ENE,70,0.0,0.0,19,0.00,CLR,,0.00,WeatherDisplay:10.37,2013-05-03 18:05:00,
2013-05-03 11:10:00,69.1,25.0,30.12,SW,218,0.0,0.0,19,0.00,CLR,,0.00,WeatherDisplay:10.37,2013-05-03 18:10:00,
2013-05-03 11:20:00,69.4,24.0,30.12,East,79,0.0,0.0,18,0.00,CLR,,0.00,WeatherDisplay:10.37,2013-05-03 18:20:00,
2013-05-03 11:30:00,70.3,24.8,30.12,NNW,339,0.0,5.0,18,0.00,CLR,,0.00,WeatherDisplay:10.37,2013-05-03 18:30:00,
2013-05-03 11:40:00,70.9,25.3,30.11,WSW,246,0.0,5.0,18,0.00,CLR,,0.00,WeatherDisplay:10.37,2013-05-03 18:40:00,
2013-05-03 11:50:00,71.8,24.6,30.11,North,357,0.0,8.0,17,0.00,CLR,,0.00,WeatherDisplay:10.37,2013-05-03 18:50:00,
2013-05-03 12:00:00,72.9,25.5,30.10,East,83,0.0,0.0,17,0.00,CLR,,0.00,WeatherDisplay:10.37,2013-05-03 19:00:00,
2013-05-03 12:10:00,73.6,26.0,30.10,NE,49,0.0,0.0,17,0.00,CLR,,0.00,WeatherDisplay:10.37,2013-05-03 19:10:00,
2013-05-03 12:20:00,73.8,24.8,30.09,SSE,155,7.0,7.0,16,0.00,CLR,,0.00,WeatherDisplay:10.37,2013-05-03 19:20:00,
2013-05-03 12:30:00,74.5,25.3,30.08,ESE,112,0.0,0.0,16,0.00,CLR,,0.00,WeatherDisplay:10.37,2013-05-03 19:30:00,
2013-05-03 12:40:00,75.0,25.7,30.08,East,88,3.0,5.0,16,0.00,CLR,,0.00,WeatherDisplay:10.37,2013-05-03 19:40:00,
2013-05-03 12:50:00,76.6,25.4,30.07,WSW,257,0.0,4.0,15,0.00,CLR,,0.00,WeatherDisplay:10.37,2013-05-03 19:50:00,
2013-05-03 13:00:00,76.8,25.6,30.07,SSW,196,0.0,0.0,15,0.00,CLR,,0.00,WeatherDisplay:10.37,2013-05-03 20:00:00,
2013-05-03 13:05:00,76.7,25.5,30.07,WSW,238,0.0,0.0,15,0.00,CLR,,0.00,WeatherDisplay:10.37,2013-05-03 20:05:00,
2013-05-03 13:10:00,76.6,25.5,30.07,WSW,245,0.0,0.0,15,0.00,CLR,,0.00,WeatherDisplay:10.37,2013-05-03 20:10:00,
2013-05-03 13:20:00,76.7,25.5,30.06,WSW,240,0.0,0.0,15,0.00,CLR,,0.00,WeatherDisplay:10.37,2013-05-03 20:20:00,
2013-05-03 13:30:00,78.1,26.6,30.05,ENE,68,0.0,7.0,15,0.00,CLR,,0.00,WeatherDisplay:10.37,2013-05-03 20:30:00,
2013-05-03 13:40:00,79.0,27.4,30.05,ESE,103,3.0,6.0,15,0.00,CLR,,0.00,WeatherDisplay:10.37,2013-05-03 20:40:00,
2013-05-03 13:50:00,79.3,27.6,30.04,SW,233,6.0,7.0,15,0.00,CLR,,0.00,WeatherDisplay:10.37,2013-05-03 20:50:00,
2013-05-03 14:00:00,79.7,27.9,30.04,ENE,68,0.0,6.0,15,0.00,CLR,,0.00,WeatherDisplay:10.37,2013-05-03 21:00:00,
2013-05-03 14:05:00,80.1,28.3,30.04,ENE,69,0.0,2.0,15,0.00,CLR,,0.00,WeatherDisplay:10.37,2013-05-03 21:05:00,
2013-05-03 14:10:00,80.4,28.5,30.03,WSW,244,0.0,0.0,15,0.00,CLR,,0.00,WeatherDisplay:10.37,2013-05-03 21:10:00,
2013-05-03 14:20:00,80.4,28.5,30.03,WSW,248,0.0,0.0,15,0.00,CLR,,0.00,WeatherDisplay:10.37,2013-05-03 21:20:00,
2013-05-03 14:30:00,80.4,28.5,30.03,WSW,248,0.0,0.0,15,0.00,CLR,,0.00,WeatherDisplay:10.37,2013-05-03 21:30:00,
2013-05-03 14:40:00,80.8,28.8,30.02,SW,234,0.0,0.0,15,0.00,CLR,,0.00,WeatherDisplay:10.37,2013-05-03 21:40:00,
2013-05-03 14:50:00,81.3,29.2,30.01,WSW,248,2.0,3.0,15,0.00,CLR,,0.00,WeatherDisplay:10.37,2013-05-03 21:50:00,
2013-05-03 15:00:00,82.0,29.8,30.00,WSW,248,0.0,0.0,15,0.00,CLR,,0.00,WeatherDisplay:10.37,2013-05-03 22:00:00,
2013-05-03 15:05:00,82.4,30.1,30.00,WSW,248,0.0,0.0,15,0.00,CLR,,0.00,WeatherDisplay:10.37,2013-05-03 22:05:00,
2013-05-03 15:10:00,82.6,30.2,30.00,WSW,248,0.0,0.0,15,0.00,CLR,,0.00,WeatherDisplay:10.37,2013-05-03 22:10:00,
2013-05-03 15:20:00,83.0,28.9,30.00,WSW,248,0.0,7.0,14,0.00,CLR,,0.00,WeatherDisplay:10.37,2013-05-03 22:20:00,
2013-05-03 15:30:00,83.5,29.2,29.99,WSW,248,0.0,0.0,14,0.00,CLR,,0.00,WeatherDisplay:10.37,2013-05-03 22:30:00,
2013-05-03 15:40:00,83.8,29.5,29.99,WSW,248,0.0,0.0,14,0.00,CLR,,0.00,WeatherDisplay:10.37,2013-05-03 22:40:00,
2013-05-03 15:50:00,84.0,29.7,29.99,WSW,248,3.0,5.0,14,0.00,CLR,,0.00,WeatherDisplay:10.37,2013-05-03 22:50:00,
2013-05-03 16:00:00,84.0,29.7,29.98,WSW,248,0.0,0.0,14,0.00,CLR,,0.00,WeatherDisplay:10.37,2013-05-03 23:00:00,
2013-05-03 16:05:00,84.0,29.7,29.98,WSW,248,0.0,0.0,14,0.00,CLR,,0.00,WeatherDisplay:10.37,2013-05-03 23:05:00,
2013-05-03 16:10:00,84.0,29.7,29.98,WSW,248,0.0,0.0,14,0.00,CLR,,0.00,WeatherDisplay:10.37,2013-05-03 23:10:00,
2013-05-03 16:20:00,83.8,29.5,29.98,WSW,248,0.0,7.0,14,0.00,CLR,,0.00,WeatherDisplay:10.37,2013-05-03 23:20:00,
2013-05-03 16:30:00,83.1,29.0,29.98,WSW,248,0.0,0.0,14,0.00,CLR,,0.00,WeatherDisplay:10.37,2013-05-03 23:30:00,
2013-05-03 16:40:00,82.9,28.8,29.97,WSW,248,0.0,0.0,14,0.00,CLR,,0.00,WeatherDisplay:10.37,2013-05-03 23:40:00,
2013-05-03 16:50:00,81.8,27.9,29.97,WSW,248,0.0,8.0,14,0.00,CLR,,0.00,WeatherDisplay:10.37,2013-05-03 23:50:00,
2013-05-03 17:00:00,81.3,27.5,29.97,WSW,248,0.0,8.0,14,0.00,CLR,,0.00,WeatherDisplay:10.37,2013-05-04 00:00:00,
2013-05-03 17:05:00,81.0,27.3,29.97,WSW,248,0.0,0.0,14,0.00,CLR,,0.00,WeatherDisplay:10.37,2013-05-04 00:05:00,
2013-05-03 17:10:00,80.8,28.8,29.97,WSW,248,0.0,0.0,15,0.00,CLR,,0.00,WeatherDisplay:10.37,2013-05-04 00:10:00,
2013-05-03 17:20:00,80.2,28.3,29.96,WSW,248,0.0,0.0,15,0.00,CLR,,0.00,WeatherDisplay:10.37,2013-05-04 00:20:00,
2013-05-03 17:30:00,79.5,27.8,29.96,WSW,248,0.0,8.0,15,0.00,CLR,,0.00,WeatherDisplay:10.37,2013-05-04 00:30:00,
2013-05-03 17:40:00,79.0,27.4,29.96,WSW,248,0.0,0.0,15,0.00,CLR,,0.00,WeatherDisplay:10.37,2013-05-04 00:40:00,
2013-05-03 17:50:00,78.5,27.0,29.95,WSW,248,0.0,0.0,15,0.00,CLR,,0.00,WeatherDisplay:10.37,2013-05-04 00:50:00,
2013-05-03 18:00:00,77.7,26.4,29.95,ENE,68,0.0,0.0,15,0.00,CLR,,0.00,WeatherDisplay:10.37,2013-05-04 01:00:00,
2013-05-03 18:05:00,77.4,26.1,29.95,ENE,68,0.0,0.0,15,0.00,CLR,,0.00,WeatherDisplay:10.37,2013-05-04 01:05:00,
2013-05-03 18:10:00,77.2,25.9,29.95,ENE,62,0.0,0.0,15,0.00,CLR,,0.00,WeatherDisplay:10.37,2013-05-04 01:10:00,
2013-05-03 18:20:00,76.8,25.6,29.95,East,84,0.0,0.0,15,0.00,CLR,,0.00,WeatherDisplay:10.37,2013-05-04 01:20:00,
2013-05-03 18:30:00,76.3,25.2,29.95,ENE,60,0.0,0.0,15,0.00,CLR,,0.00,WeatherDisplay:10.37,2013-05-04 01:30:00,
2013-05-03 18:40:00,75.7,26.3,29.95,ENE,68,0.0,0.0,16,0.00,CLR,,0.00,WeatherDisplay:10.37,2013-05-04 01:40:00,
2013-05-03 18:50:00,75.0,25.7,29.95,ENE,68,0.0,0.0,16,0.00,CLR,,0.00,WeatherDisplay:10.37,2013-05-04 01:50:00,
2013-05-03 19:00:00,74.3,25.2,29.95,ENE,68,0.0,0.0,16,0.00,CLR,,0.00,WeatherDisplay:10.37,2013-05-04 02:00:00,
2013-05-03 19:05:00,74.1,25.0,29.96,ENE,68,0.0,0.0,16,0.00,CLR,,0.00,WeatherDisplay:10.37,2013-05-04 02:05:00,
2013-05-03 19:10:00,73.8,24.8,29.96,ENE,68,0.0,0.0,16,0.00,CLR,,0.00,WeatherDisplay:10.37,2013-05-04 02:10:00,
2013-05-03 19:20:00,73.2,24.3,29.96,ENE,68,0.0,0.0,16,0.00,CLR,,0.00,WeatherDisplay:10.37,2013-05-04 02:20:00,
2013-05-03 19:30:00,72.3,25.0,29.96,ENE,68,0.0,0.0,17,0.00,CLR,,0.00,WeatherDisplay:10.37,2013-05-04 02:30:00,
2013-05-03 19:40:00,71.2,24.1,29.96,SSW,197,0.0,0.0,17,0.00,CLR,,0.00,WeatherDisplay:10.37,2013-05-04 02:40:00,
2013-05-03 19:50:00,70.2,24.6,29.96,SSW,202,0.0,0.0,18,0.00,CLR,,0.00,WeatherDisplay:10.37,2013-05-04 02:50:00,
2013-05-03 20:00:00,69.0,23.7,29.96,SSW,202,0.0,0.0,18,0.00,CLR,,0.00,WeatherDisplay:10.37,2013-05-04 03:00:00,
2013-05-03 20:05:00,68.7,23.5,29.96,SSW,202,0.0,0.0,18,0.00,CLR,,0.00,WeatherDisplay:10.37,2013-05-04 03:05:00,
2013-05-03 20:10:00,68.4,23.2,29.96,SSW,202,0.0,0.0,18,0.00,CLR,,0.00,WeatherDisplay:10.37,2013-05-04 03:10:00,
2013-05-03 20:20:00,67.7,23.9,29.96,SSW,202,0.0,0.0,19,0.00,CLR,,0.00,WeatherDisplay:10.37,2013-05-04 03:20:00,
2013-05-03 20:30:00,66.9,23.3,29.96,SSW,202,0.0,0.0,19,0.00,CLR,,0.00,WeatherDisplay:10.37,2013-05-04 03:30:00,
2013-05-03 20:40:00,66.6,23.0,29.97,SSW,202,0.0,0.0,19,0.00,CLR,,0.00,WeatherDisplay:10.37,2013-05-04 03:40:00,
2013-05-03 20:50:00,66.0,22.5,29.97,SSW,202,0.0,0.0,19,0.00,CLR,,0.00,WeatherDisplay:10.37,2013-05-04 03:50:00,
2013-05-03 21:00:00,65.5,22.1,29.97,SSW,207,0.0,0.0,19,0.00,CLR,,0.00,WeatherDisplay:10.37,2013-05-04 04:00:00,
2013-05-03 21:05:00,65.1,21.8,29.97,SSW,211,0.0,0.0,19,0.00,CLR,,0.00,WeatherDisplay:10.37,2013-05-04 04:05:00,
2013-05-03 21:10:00,65.1,21.8,29.97,SW,231,0.0,0.0,19,0.00,CLR,,0.00,WeatherDisplay:10.37,2013-05-04 04:10:00,
2013-05-03 21:20:00,64.6,22.6,29.97,West,270,0.0,0.0,20,0.00,CLR,,0.00,WeatherDisplay:10.37,2013-05-04 04:20:00,
2013-05-03 21:30:00,64.2,22.3,29.97,West,267,0.0,0.0,20,0.00,CLR,,0.00,WeatherDisplay:10.37,2013-05-04 04:30:00,
2013-05-03 21:40:00,64.2,22.3,29.97,SW,236,0.0,0.0,20,0.00,CLR,,0.00,WeatherDisplay:10.37,2013-05-04 04:40:00,
2013-05-03 21:45:00,64.0,22.1,29.97,WSW,239,0.0,0.0,20,0.00,CLR,,0.00,WeatherDisplay:10.37,2013-05-04 04:45:00,
2013-05-03 21:50:00,63.9,22.0,29.97,West,262,0.0,0.0,20,0.00,CLR,,0.00,WeatherDisplay:10.37,2013-05-04 04:50:00,
2013-05-03 22:00:00,63.5,21.7,29.97,West,270,0.0,0.0,20,0.00,CLR,,0.00,WeatherDisplay:10.37,2013-05-04 05:00:00,
2013-05-03 22:05:00,63.3,21.5,29.97,West,270,0.0,0.0,20,0.00,CLR,,0.00,WeatherDisplay:10.37,2013-05-04 05:05:00,
2013-05-03 22:10:00,63.1,21.4,29.96,West,270,0.0,0.0,20,0.00,CLR,,0.00,WeatherDisplay:10.37,2013-05-04 05:10:00,
2013-05-03 22:20:00,62.8,21.1,29.96,West,270,0.0,0.0,20,0.00,CLR,,0.00,WeatherDisplay:10.37,2013-05-04 05:20:00,
2013-05-03 22:30:00,62.3,20.7,29.96,West,270,0.0,0.0,20,0.00,CLR,,0.00,WeatherDisplay:10.37,2013-05-04 05:30:00,
2013-05-03 22:40:00,62.1,20.5,29.96,West,270,0.0,0.0,20,0.00,CLR,,0.00,WeatherDisplay:10.37,2013-05-04 05:40:00,
2013-05-03 22:50:00,61.7,20.2,29.96,West,270,0.0,0.0,20,0.00,CLR,,0.00,WeatherDisplay:10.37,2013-05-04 05:50:00,
2013-05-03 23:00:00,61.5,21.2,29.96,West,270,0.0,0.0,21,0.00,CLR,,0.00,WeatherDisplay:10.37,2013-05-04 06:00:00,
2013-05-03 23:05:00,61.3,21.0,29.96,West,270,0.0,0.0,21,0.00,CLR,,0.00,WeatherDisplay:10.37,2013-05-04 06:05:00,
2013-05-03 23:10:00,61.3,21.0,29.96,West,270,0.0,0.0,21,0.00,CLR,,0.00,WeatherDisplay:10.37,2013-05-04 06:10:00,
2013-05-03 23:20:00,61.2,20.9,29.96,West,270,0.0,0.0,21,0.00,CLR,,0.00,WeatherDisplay:10.37,2013-05-04 06:20:00,
2013-05-03 23:30:00,61.0,20.7,29.96,West,270,0.0,0.0,21,0.00,CLR,,0.00,WeatherDisplay:10.37,2013-05-04 06:30:00,
2013-05-03 23:40:00,61.0,20.7,29.96,WSW,238,0.0,0.0,21,0.00,CLR,,0.00,WeatherDisplay:10.37,2013-05-04 06:40:00,
2013-05-03 23:50:00,61.0,20.7,29.96,SW,225,0.0,0.0,21,0.00,CLR,,0.00,WeatherDisplay:10.37,2013-05-04 06:50:00,